Погода в Чернушке

Россия / Пермский край     56°30′57″N   56°04′34″E
темп.,
°C
ветер,
м/с
пор.,
м/с
влажн.,
%
обл.,
%
осадки,
мм/ч
давл.,
гПа
погр.,
м
8 мая, сб
сб823:00+13ю3570100 0.0 101781
02:00+11ююз237395 0.0 101725
05:00+11ю2272100 0.0 101736
08:00+13ю2469100 0.0 1017183
11:00+17ююз3454100 0.0 1017676
14:00+19юз344592 0.0 10172253
17:00+17з235796 0.1 1017491
20:00+16сз116283 0.0 101613
9 мая, вс
вс923:00+12юв007174 0.1 101710
02:00+11вюв117799 0.0 101710
05:00+10в118381 0.0 101710
08:00+13в227120 0.0 1018143
11:00+18вюв34510 0.0 1017853
14:00+21ююв233897 0.0 10162359
17:00+20юз12416 0.0 10171115
20:00+18всв12510 0.0 101711
10 мая, пн
пн1023:00+13юв22606 0.0 101818
02:00+11в3467100 0.0 101849
05:00+10вюв226885 0.0 102016
08:00+14вюв35607 0.0 1020160
11:00+20юв344295 0.0 1021755
14:00+22ю3335100 0.0 10211909
17:00+22юз2235100 0.0 10211993
20:00+19з1157100 0.0 102211
11 мая, вт
вт1123:00+14ссв357997 0.2 102391
02:00+13ссв2693100 0.3 1024247
05:00+12ссз579280 0.9 1025360
08:00+12с468138 0.0 1027515
11:00+15с55615 0.0 10281237
14:00+16с55491 0.0 10281420
17:00+17с56398 0.0 10281617
20:00+13св47505 0.0 1029176
12 мая, ср
ср1223:00+9ссв375342 0.0 1030110
02:00+8ссв335845 0.0 103134
05:00+8ссв2261100 0.0 103118
08:00+11ссв2458100 0.0 1031155
11:00+16ссв23455 0.0 1030816
14:00+18ссз344742 0.0 10301137
17:00+19ссз455024 0.0 10291263
20:00+17сз226786 0.0 102823